GW3919 Weather Reports


Display with metric or nautical units.
time (UTC)temp
F
wind
direction
speed
MPH
gust
MPH
rain 1hr
in
rain 24hr
in
rain mn
in
humidity
%
barometer
mb
20260905224323 102 266 2.0 4.0 0.00 0.00 0.00 43 1010.6
20260905223818 102 273 2.0 2.0 0.00 0.00 0.00 42 1010.7
20260905223315 101 52 0.0 2.0 0.00 0.00 0.00 44 1010.8
20260905222810 100 257 1.0 4.0 0.00 0.00 0.00 45 1010.7
20260905222309 101 235 1.0 5.0 0.00 0.00 0.00 44 1010.7
20260905221806 101 261 3.0 3.0 0.00 0.00 0.00 44 1010.8
20260905221302 100 235 0.0 2.0 0.00 0.00 0.00 45 1010.9
20260905220757 100 277 3.0 5.0 0.00 0.00 0.00 46 1010.9
20260905220254 100 259 3.0 5.0 0.00 0.00 0.00 45 1010.9
20260905215753 100 247 4.0 5.0 0.00 0.00 0.00 45 1011.1
20260905215249 101 266 2.0 5.0 0.00 0.00 0.00 45 1011.1
20260905214744 101 280 4.0 4.0 0.00 0.00 0.00 44 1011.0
20260905214240 101 279 2.0 2.0 0.00 0.00 0.00 44 1011.1
20260905213735 100 78 2.0 3.0 0.00 0.00 0.00 45 1011.0
20260905213231 99 71 0.0 2.0 0.00 0.00 0.00 46 1011.2
20260905212726 98 289 2.0 3.0 0.00 0.00 0.00 47 1011.3
20260905212225 99 278 3.0 4.0 0.00 0.00 0.00 46 1011.3
20260905211725 99 262 3.0 4.0 0.00 0.00 0.00 46 1011.2
20260905211220 100 273 3.0 4.0 0.00 0.00 0.00 45 1011.5
20260905210717 101 259 4.0 6.0 0.00 0.00 0.00 45 1011.5
20260905210217 104 267 3.0 3.0 0.00 0.00 0.00 42 1011.4
20260905205711 103 206 2.0 4.0 0.00 0.00 0.00 42 1011.4
20260905205210 103 195 2.0 4.0 0.00 0.00 0.00 42 1011.6
20260905204705 104 184 3.0 3.0 0.00 0.00 0.00 41 1011.6
20260905204200 102 296 2.0 3.0 0.00 0.00 0.00 43 1011.8
20260905203700 101 194 2.0 4.0 0.00 0.00 0.00 43 1011.9
20260905203155 100 250 2.0 4.0 0.00 0.00 0.00 44 1012.0
20260905202651 100 266 4.0 4.0 0.00 0.00 0.00 44 1012.1
20260905202146 100 206 2.0 2.0 0.00 0.00 0.00 45 1012.0
20260905201642 100 201 2.0 4.0 0.00 0.00 0.00 45 1012.3
20260905201141 101 210 2.0 4.0 0.00 0.00 0.00 44 1012.2
20260905200637 102 276 3.0 5.0 0.00 0.00 0.00 44 1012.2
20260905200132 102 299 4.0 5.0 0.00 0.00 0.00 44 1012.2
20260905195625 100 248 0.0 3.0 0.00 0.00 0.00 46 1012.3
20260905195120 100 264 2.0 6.0 0.00 0.00 0.00 45 1012.4
20260905194615 102 165 3.0 3.0 0.00 0.00 0.00 44 1012.5
20260905194114 99 156 2.0 5.0 0.00 0.00 0.00 47 1012.5
20260905193609 100 260 5.0 6.0 0.00 0.00 0.00 46 1012.7
20260905193104 99 263 2.0 5.0 0.00 0.00 0.00 47 1012.8
20260905192600 99 301 4.0 6.0 0.00 0.00 0.00 48 1012.8
20260905192056 99 290 1.0 3.0 0.00 0.00 0.00 47 1012.8
20260905191554 101 310 4.0 5.0 0.00 0.00 0.00 46 1013.0
20260905191053 100 88 0.0 3.0 0.00 0.00 0.00 46 1013.2
20260905190552 101 231 0.0 3.0 0.00 0.00 0.00 45 1013.2
20260905190051 100 304 4.0 4.0 0.00 0.00 0.00 46 1013.3
20260905185550 99 138 1.0 3.0 0.00 0.00 0.00 46 1013.4
20260905185049 100 179 2.0 4.0 0.00 0.00 0.00 45 1013.5
20260905184544 99 220 1.0 5.0 0.00 0.00 0.00 47 1013.6
20260905184043 98 303 2.0 4.0 0.00 0.00 0.00 48 1013.7
20260905183537 99 281 2.0 4.0 0.00 0.00 0.00 47 1013.6
20260905183033 99 281 3.0 7.0 0.00 0.00 0.00 48 1013.8
20260905182532 99 183 0.0 4.0 0.00 0.00 0.00 46 1014.0
20260905182026 100 247 1.0 4.0 0.00 0.00 0.00 47 1013.9
20260905181521 100 268 3.0 3.0 0.00 0.00 0.00 47 1013.8
20260905181020 98 246 1.0 4.0 0.00 0.00 0.00 48 1014.1
20260905180515 99 224 2.0 4.0 0.00 0.00 0.00 48 1014.2
20260905180011 99 205 2.0 4.0 0.00 0.00 0.00 47 1014.2
20260905175510 98 218 0.0 5.0 0.00 0.00 0.00 47 1014.4
20260905175006 99 287 5.0 9.0 0.00 0.00 0.00 48 1014.3
20260905174500 98 284 2.0 3.0 0.00 0.00 0.00 49 1014.5
20260905173957 97 213 2.0 2.0 0.00 0.00 0.00 50 1014.5
20260905173453 97 190 3.0 4.0 0.00 0.00 0.00 49 1014.7
20260905172948 97 222 2.0 8.0 0.00 0.00 0.00 50 1014.7
20260905172446 96 3 0.0 3.0 0.00 0.00 0.00 51 1014.7
20260905171941 98 274 3.0 5.0 0.00 0.00 0.00 51 1014.9
20260905171438 98 230 1.0 6.0 0.00 0.00 0.00 50 1014.7
20260905170934 98 227 0.0 4.0 0.00 0.00 0.00 50 1015.0
20260905170430 97 266 1.0 3.0 0.00 0.00 0.00 51 1015.1
20260905165930 95 259 0.0 4.0 0.00 0.00 0.00 53 1015.0
20260905165425 97 109 0.0 3.0 0.00 0.00 0.00 51 1014.9
20260905164920 97 301 2.0 4.0 0.00 0.00 0.00 51 1015.0
20260905164414 97 274 3.0 4.0 0.00 0.00 0.00 50 1015.0
20260905163909 96 163 1.0 4.0 0.00 0.00 0.00 50 1014.9
20260905163406 95 193 3.0 4.0 0.00 0.00 0.00 52 1015.0
20260905162902 94 14 0.0 4.0 0.00 0.00 0.00 55 1015.1
20260905162402 94 252 0.0 4.0 0.00 0.00 0.00 56 1015.1
20260905161857 93 195 2.0 4.0 0.00 0.00 0.00 57 1015.1
20260905161355 94 297 2.0 4.0 0.00 0.00 0.00 55 1015.1
20260905160854 95 292 3.0 3.0 0.00 0.00 0.00 54 1015.2
20260905160348 95 255 1.0 2.0 0.00 0.00 0.00 56 1015.1
20260905155843 93 247 0.0 2.0 0.00 0.00 0.00 60 1015.0
20260905155342 92 87 1.0 3.0 0.00 0.00 0.00 59 1015.1
20260905154836 93 245 2.0 2.0 0.00 0.00 0.00 61 1015.1
20260905154332 92 268 3.0 3.0 0.00 0.00 0.00 62 1014.9
20260905153827 91 168 2.0 5.0 0.00 0.00 0.00 64 1015.0
20260905153318 92 235 0.0 3.0 0.00 0.00 0.00 65 1015.1
20260905152818 92 253 0.0 2.0 0.00 0.00 0.00 65 1015.0
20260905152317 92 236 1.0 4.0 0.00 0.00 0.00 64 1015.2
20260905151812 93 288 1.0 3.0 0.00 0.00 0.00 64 1015.1
20260905151308 92 287 0.0 3.0 0.00 0.00 0.00 65 1015.0
20260905150807 92 202 0.0 3.0 0.00 0.00 0.00 66 1015.0
20260905150307 90 194 1.0 4.0 0.00 0.00 0.00 68 1014.7
20260905145804 90 268 2.0 2.0 0.00 0.00 0.00 67 1014.8
20260905145259 89 159 2.0 5.0 0.00 0.00 0.00 69 1014.9
20260905144758 90 274 4.0 4.0 0.00 0.00 0.00 68 1014.8
20260905144254 89 240 0.0 3.0 0.00 0.00 0.00 69 1014.6
20260905143752 89 145 0.0 2.0 0.00 0.00 0.00 70 1014.9
20260905143247 89 205 2.0 3.0 0.00 0.00 0.00 70 1015.0
20260905142745 87 216 0.0 4.0 0.00 0.00 0.00 73 1014.9
20260905142239 86 187 0.0 4.0 0.00 0.00 0.00 74 1014.8
20260905141736 85 95 1.0 6.0 0.00 0.00 0.00 75 1014.9
20260905141232 86 153 1.0 2.0 0.00 0.00 0.00 74 1015.0
20260905140727 85 297 0.0 2.0 0.00 0.00 0.00 75 1014.9
20260905140227 85 319 1.0 3.0 0.00 0.00 0.00 75 1015.0
20260905135720 85 287 2.0 4.0 0.00 0.00 0.00 75 1015.0
20260905135217 85 265 0.0 3.0 0.00 0.00 0.00 74 1014.7
20260905134715 86 308 0.0 4.0 0.00 0.00 0.00 74 1014.7
20260905134215 87 243 0.0 1.0 0.00 0.00 0.00 72 1014.8
20260905133710 86 302 0.0 2.0 0.00 0.00 0.00 74 1014.9
20260905133205 86 164 0.0 2.0 0.00 0.00 0.00 73 1014.7
20260905132704 85 225 0.0 3.0 0.00 0.00 0.00 75 1014.5
20260905132200 87 240 0.0 0.0 0.00 0.00 0.00 71 1014.5
20260905131655 87 191 1.0 2.0 0.00 0.00 0.00 72 1014.4
20260905131150 86 297 0.0 0.0 0.00 0.00 0.00 74 1014.6
20260905130645 85 219 0.0 2.0 0.00 0.00 0.00 76 1014.6
20260905130144 84 226 0.0 0.0 0.00 0.00 0.00 78 1014.5
20260905125638 83 217 0.0 1.0 0.00 0.00 0.00 80 1014.3
20260905125134 80 240 0.0 1.0 0.00 0.00 0.00 84 1014.3
20260905124631 79 311 0.0 1.0 0.00 0.00 0.00 86 1014.0
20260905124126 78 37 0.0 1.0 0.00 0.00 0.00 87 1014.1
20260905123621 78 269 0.0 0.0 0.00 0.00 0.00 88 1014.1
20260905123118 78 217 0.0 1.0 0.00 0.00 0.00 88 1014.3
20260905122612 77 215 0.0 1.0 0.00 0.00 0.00 88 1014.3
20260905122106 77 207 0.0 2.0 0.00 0.00 0.00 88 1014.3
20260905121555 78 256 0.0 1.0 0.00 0.00 0.00 87 1014.2
20260905121051 77 242 0.0 1.0 0.00 0.00 0.00 87 1014.2
20260905120550 77 242 0.0 0.0 0.00 0.00 0.00 87 1014.0
20260905120046 77 224 0.0 1.0 0.00 0.00 0.00 87 1014.2
20260905115544 77 224 0.0 0.0 0.00 0.00 0.00 87 1014.3
20260905115039 77 141 0.0 1.0 0.00 0.00 0.00 86 1014.1
20260905114538 78 221 0.0 1.0 0.00 0.00 0.00 86 1014.0
20260905114038 78 229 0.0 2.0 0.00 0.00 0.00 86 1014.0
20260905113533 78 262 0.0 1.0 0.00 0.00 0.00 86 1014.1
20260905113028 78 271 0.0 1.0 0.00 0.00 0.00 86 1014.1
20260905112523 78 247 0.0 1.0 0.00 0.00 0.00 86 1014.2
20260905112019 78 257 1.0 1.0 0.00 0.00 0.00 86 1014.0
20260905111513 78 240 0.0 1.0 0.00 0.00 0.00 85 1014.1
20260905111013 78 277 0.0 1.0 0.00 0.00 0.00 85 1014.1
20260905110512 78 235 0.0 1.0 0.00 0.00 0.00 85 1014.1
20260905110007 78 343 0.0 0.0 0.00 0.00 0.00 85 1014.1
20260905105501 78 151 0.0 1.0 0.00 0.00 0.00 85 1013.9
20260905105000 78 245 1.0 1.0 0.00 0.00 0.00 84 1014.1
20260905104456 78 217 0.0 1.0 0.00 0.00 0.00 84 1013.7
20260905103951 78 269 0.0 0.0 0.00 0.00 0.00 84 1013.8
20260905103446 78 217 0.0 0.0 0.00 0.00 0.00 84 1013.8
20260905102943 78 205 0.0 0.0 0.00 0.00 0.00 83 1014.0
20260905102438 78 195 0.0 0.0 0.00 0.00 0.00 83 1013.9
20260905101933 79 246 0.0 1.0 0.00 0.00 0.00 83 1013.9
20260905101432 79 218 0.0 0.0 0.00 0.00 0.00 83 1014.0
20260905100927 79 235 0.0 0.0 0.00 0.00 0.00 82 1014.1
20260905100422 79 240 0.0 0.0 0.00 0.00 0.00 81 1013.9
20260905095921 79 231 0.0 0.0 0.00 0.00 0.00 81 1013.7
20260905095416 79 242 0.0 0.0 0.00 0.00 0.00 81 1013.8
20260905094911 79 229 0.0 1.0 0.00 0.00 0.00 81 1013.9
20260905094406 80 269 0.0 0.0 0.00 0.00 0.00 81 1013.7
20260905093904 80 119 0.0 0.0 0.00 0.00 0.00 80 1013.7
20260905093355 80 235 0.0 1.0 0.00 0.00 0.00 80 1014.0
20260905092850 80 224 0.0 0.0 0.00 0.00 0.00 79 1013.8
20260905092351 80 255 0.0 1.0 0.00 0.00 0.00 79 1013.9
20260905091845 80 308 0.0 0.0 0.00 0.00 0.00 79 1013.8
20260905091340 80 265 0.0 1.0 0.00 0.00 0.00 79 1013.8
20260905090838 81 249 0.0 2.0 0.00 0.00 0.00 79 1013.7
20260905090335 81 242 0.0 1.0 0.00 0.00 0.00 78 1013.7
20260905085834 81 239 1.0 2.0 0.00 0.00 0.00 78 1013.5
20260905085328 81 247 0.0 1.0 0.00 0.00 0.00 78 1013.4
20260905084824 81 244 0.0 1.0 0.00 0.00 0.00 78 1013.7
20260905084323 81 180 0.0 1.0 0.00 0.00 0.00 77 1013.4
20260905083818 82 89 0.0 0.0 0.00 0.00 0.00 77 1013.3
20260905083314 82 235 0.0 2.0 0.00 0.00 0.00 77 1013.3
20260905082809 82 119 0.0 1.0 0.00 0.00 0.00 77 1013.3
20260905082307 82 107 1.0 3.0 0.00 0.00 0.00 76 1013.4
20260905081806 82 113 0.0 0.0 0.00 0.00 0.00 76 1013.4
20260905081301 83 205 0.0 0.0 0.00 0.00 0.00 75 1013.2
20260905080800 83 322 0.0 1.0 0.00 0.00 0.00 75 1013.2
20260905080259 83 260 0.0 2.0 0.00 0.00 0.00 74 1013.1
20260905075758 83 297 0.0 2.0 0.00 0.00 0.00 74 1013.2
20260905075253 83 287 0.0 1.0 0.00 0.00 0.00 74 1013.2
20260905074752 83 255 0.0 1.0 0.00 0.00 0.00 74 1013.4
20260905074248 84 245 1.0 2.0 0.00 0.00 0.00 74 1013.3
20260905073743 84 256 0.0 2.0 0.00 0.00 0.00 74 1013.3
20260905073239 84 176 1.0 2.0 0.00 0.00 0.00 74 1013.6
20260905072738 83 219 0.0 2.0 0.00 0.00 0.00 75 1013.6
20260905072234 83 314 0.0 0.0 0.00 0.00 0.00 75 1013.6
20260905071730 83 299 0.0 1.0 0.00 0.00 0.00 75 1013.9
20260905071226 84 269 0.0 2.0 0.00 0.00 0.00 74 1013.8
20260905070720 84 246 1.0 1.0 0.00 0.00 0.00 74 1013.9
20260905070217 84 245 0.0 2.0 0.00 0.00 0.00 74 1013.7
20260905065715 84 259 2.0 2.0 0.00 0.00 0.00 74 1013.9
20260905065210 84 262 0.0 2.0 0.00 0.00 0.00 74 1014.1
20260905064705 84 240 0.0 2.0 0.00 0.00 0.00 74 1013.9
20260905064201 84 300 0.0 1.0 0.00 0.00 0.00 74 1014.0
20260905063659 84 269 0.0 0.0 0.00 0.00 0.00 74 1013.9
20260905063155 84 290 0.0 2.0 0.00 0.00 0.00 73 1013.9
20260905062651 84 261 0.0 1.0 0.00 0.00 0.00 73 1013.9
20260905062150 84 249 0.0 1.0 0.00 0.00 0.00 73 1013.9
20260905061644 84 283 0.0 2.0 0.00 0.00 0.00 73 1014.0
20260905061138 84 135 0.0 1.0 0.00 0.00 0.00 72 1013.8
20260905060634 85 62 0.0 0.0 0.00 0.00 0.00 72 1014.0
20260905060131 85 219 0.0 1.0 0.00 0.00 0.00 71 1013.9
20260905055628 85 157 0.0 2.0 0.00 0.00 0.00 70 1013.9
20260905055124 85 330 0.0 1.0 0.00 0.00 0.00 70 1014.1
20260905054620 85 279 0.0 2.0 0.00 0.00 0.00 70 1013.7
20260905054115 86 212 0.0 1.0 0.00 0.00 0.00 70 1013.6
20260905053615 86 333 0.0 2.0 0.00 0.00 0.00 69 1013.6
20260905053110 86 317 1.0 2.0 0.00 0.00 0.00 69 1013.5
20260905052609 86 322 1.0 2.0 0.00 0.00 0.00 69 1013.7
20260905052104 86 213 1.0 1.0 0.00 0.00 0.00 68 1013.5
20260905051600 86 235 0.0 2.0 0.00 0.00 0.00 68 1013.5
20260905051056 87 299 0.0 2.0 0.00 0.00 0.00 68 1013.7
20260905050551 87 160 0.0 2.0 0.00 0.00 0.00 67 1013.6
20260905050048 87 259 0.0 2.0 0.00 0.00 0.00 67 1013.4
20260905045543 87 227 1.0 2.0 0.00 0.00 0.00 67 1013.6
20260905045038 87 205 1.0 2.0 0.00 0.00 0.00 66 1013.6
20260905044532 87 315 0.0 3.0 0.00 0.00 0.00 66 1013.4
20260905044032 87 301 2.0 4.0 0.00 0.00 0.00 66 1013.5
20260905043532 87 294 1.0 2.0 0.00 0.00 0.00 66 1013.5
20260905043027 87 207 0.0 3.0 0.00 0.00 0.00 66 1013.3
20260905042526 87 277 0.0 1.0 0.00 0.00 0.00 66 1013.4
20260905042021 88 313 2.0 4.0 0.00 0.00 0.00 65 1013.4
20260905041517 88 301 2.0 2.0 0.00 0.00 0.00 65 1013.5
20260905041012 88 250 1.0 2.0 0.00 0.00 0.00 65 1013.4
20260905040511 88 247 0.0 2.0 0.00 0.00 0.00 65 1013.7
20260905040010 88 311 2.0 2.0 0.00 0.00 0.00 64 1013.5
20260905035506 88 276 2.0 4.0 0.00 0.00 0.00 64 1013.5
20260905035003 88 333 0.0 2.0 0.00 0.00 0.00 64 1013.6
20260905034458 89 279 2.0 4.0 0.00 0.00 0.00 64 1013.5
20260905033956 89 306 0.0 4.0 0.00 0.00 0.00 64 1013.5
20260905033451 89 322 2.0 3.0 0.00 0.00 0.00 63 1013.7
20260905032946 89 335 1.0 3.0 0.00 0.00 0.00 63 1013.7
20260905032442 89 284 1.0 2.0 0.00 0.00 0.00 62 1013.5
20260905031937 89 286 2.0 2.0 0.00 0.00 0.00 62 1013.5
20260905031433 89 329 2.0 4.0 0.00 0.00 0.00 61 1013.6
20260905030928 89 323 2.0 2.0 0.00 0.00 0.00 61 1013.6
20260905030423 90 264 1.0 1.0 0.00 0.00 0.00 61 1013.4
20260905025922 90 232 1.0 3.0 0.00 0.00 0.00 60 1013.5
20260905025417 90 310 0.0 2.0 0.00 0.00 0.00 60 1013.3
20260905024914 90 290 0.0 2.0 0.00 0.00 0.00 60 1013.3
20260905024414 90 249 0.0 2.0 0.00 0.00 0.00 59 1013.2
20260905023909 90 242 0.0 2.0 0.00 0.00 0.00 59 1013.1
20260905023404 90 295 2.0 3.0 0.00 0.00 0.00 59 1013.2
20260905022903 90 303 2.0 2.0 0.00 0.00 0.00 59 1013.0
20260905022353 90 308 1.0 2.0 0.00 0.00 0.00 59 1012.7
20260905021848 90 266 1.0 1.0 0.00 0.00 0.00 59 1012.6
20260905021343 90 326 1.0 3.0 0.00 0.00 0.00 59 1012.7
20260905020838 90 246 1.0 2.0 0.00 0.00 0.00 59 1012.6
20260905020332 90 263 1.0 2.0 0.00 0.00 0.00 59 1012.4
20260905015831 91 266 1.0 2.0 0.00 0.00 0.00 59 1012.4
20260905015331 91 258 0.0 3.0 0.00 0.00 0.00 58 1012.3
20260905014825 91 283 1.0 2.0 0.00 0.00 0.00 58 1012.2
20260905014321 91 249 0.0 2.0 0.00 0.00 0.00 57 1012.3
20260905013815 92 232 2.0 3.0 0.00 0.00 0.00 56 1012.3
20260905013312 92 255 0.0 2.0 0.00 0.00 0.00 56 1012.0
20260905012807 92 236 0.0 1.0 0.00 0.00 0.00 55 1012.3
20260905012306 93 251 1.0 2.0 0.00 0.00 0.00 55 1012.3
20260905011759 93 305 2.0 3.0 0.00 0.00 0.00 54 1012.3
20260905011254 93 330 3.0 4.0 0.00 0.00 0.00 54 1012.1
20260905010749 93 304 2.0 2.0 0.00 0.00 0.00 54 1012.2
20260905010244 93 285 1.0 2.0 0.00 0.00 0.00 54 1011.9
20260905005741 93 290 2.0 2.0 0.00 0.00 0.00 54 1012.2
20260905005236 93 301 0.0 3.0 0.00 0.00 0.00 53 1011.9
20260905004736 94 279 1.0 2.0 0.00 0.00 0.00 53 1011.7
20260905004231 94 307 0.0 2.0 0.00 0.00 0.00 52 1011.8
20260905003731 94 286 2.0 3.0 0.00 0.00 0.00 52 1011.7
20260905003227 95 281 2.0 4.0 0.00 0.00 0.00 52 1011.8
20260905002723 95 303 2.0 5.0 0.00 0.00 0.00 50 1011.7
20260905002222 95 257 2.0 2.0 0.00 0.00 0.00 50 1011.6
20260905001717 96 300 3.0 3.0 0.00 0.00 0.00 50 1011.7
20260905001216 96 301 2.0 4.0 0.00 0.00 0.00 49 1011.7
20260905000712 96 267 2.0 3.0 0.00 0.00 0.00 49 1011.6
20260905000208 97 111 0.0 3.0 0.00 0.00 0.00 48 1011.5
20260904235707 97 265 2.0 3.0 0.00 0.00 0.00 48 1011.8
20260904235202 98 284 0.0 3.0 0.00 0.00 0.00 48 1011.5
20260904234657 97 277 1.0 4.0 0.00 0.00 0.00 48 1011.6
20260904234152 98 274 7.0 8.0 0.00 0.00 0.00 47 1011.4
20260904233648 99 278 2.0 3.0 0.00 0.00 0.00 47 1011.4
20260904233144 99 271 5.0 5.0 0.00 0.00 0.00 46 1011.4
20260904232640 100 284 2.0 4.0 0.00 0.00 0.00 46 1011.4
20260904232136 100 279 3.0 4.0 0.00 0.00 0.00 46 1011.4
20260904231632 99 308 5.0 5.0 0.00 0.00 0.00 46 1011.3
20260904231127 99 294 3.0 6.0 0.00 0.00 0.00 47 1011.3
20260904230627 99 289 2.0 6.0 0.00 0.00 0.00 47 1011.3
20260904230123 99 299 5.0 6.0 0.00 0.00 0.00 48 1011.4
20260904225620 98 289 4.0 6.0 0.00 0.00 0.00 48 1011.4
20260904225115 99 265 4.0 6.0 0.00 0.00 0.00 48 1011.4